Weather Service Report


623 
ASUS43 KMPX 310510
RWRMN 
WEATHER ROUNDUP FOR MINNESOTA
NATIONAL WEATHER SERVICE TWIN CITIES/CHANHASSEN MN
1200 AM CDT TUE MAY 31 2016


NOTE: "FAIR" INDICATES FEW OR NO CLOUDS BELOW 12,000 FEET WITH NO
SIGNIFICANT WEATHER AND/OR OBSTRUCTIONS TO VISIBILITY. N/A MEANS
CURRENT SKY AND/OR WEATHER CONDITIONS ARE NOT AVAILABLE.

MNZ060>063-068>070-310600-
   Twin Cities Metro   
  
CITY           SKY/WX    TMP DP  RH WIND       PRES   REMARKS
TWIN CITIES    CLOUDY    73  55  53 S10       29.89S                  
ST PAUL        CLOUDY    72  56  57 SE13      29.90S                  
CRYSTAL        CLOUDY    73  52  47 SE12      29.87S                  
BLAINE         CLOUDY    73  54  49 SE12      29.89F                  
EDEN PRAIRIE   CLOUDY    73  55  53 S12       29.87F                  
SOUTH ST PAUL  PTCLDY    72  55  55 SE9       29.90F                  
LAKE ELMO      FAIR      70  54  56 SE9       29.92F                  
$$
MNZ001>005-007-008-013>017-022>024-027-028-310600-
   Northwest Minnesota   
  
CITY           SKY/WX    TMP DP  RH WIND       PRES   REMARKS
BEMIDJI        RAIN      61  55  81 SE15G23   29.87F                  
HALLOCK        CLOUDY    63  59  88 E9        29.83F                  
ROSEAU         CLOUDY    63  55  77 E14G20    29.88F                  
WARROAD        CLOUDY    63  55  77 E13G21    29.92F                  
THIEF RVR FALL CLOUDY    59  54  82 NE3       29.87F THUNDER          
CROOKSTON      RAIN      57  57 100 NE13      29.84S                  
FOSSTON        CLOUDY    64  54  68 E14G20    29.78F                  
DETROIT LAKES  CLOUDY    68  54  60 SE17      29.77F                  
MOORHEAD       CLOUDY    61  59  94 W17       29.77R                  
PARK RAPIDS    LGT RAIN  65  55  70 E7        29.82F                  
MAHNOMEN       FAIR      68  53  58 SE15G24   29.75F                  
$$
MNZ006-009>011-018-025>026-310600-
   North Central Minnesota   
  
CITY           SKY/WX    TMP DP  RH WIND       PRES   REMARKS
BAUDETTE       PTCLDY    60  49  66 E16       29.92F                  
FLAG ISLAND    CLOUDY    61  48  63 E13G20    29.93F                  
INTL FALLS     CLOUDY    59  48  67 E13       29.97F                  
WASKISH        CLOUDY    64  50  59 E15G22    29.89F                  
BIG FORK       CLOUDY    64  48  55 E8        29.93F                  
LONGVILLE      PTCLDY    57  55  94 CALM      29.87F                  
GRAND RAPIDS   CLOUDY    63  50  62 E6        29.93F                  
CRANE LAKE     CLOUDY    57  48  72 CALM      30.02S                  
ORR            MOCLDY    59  46  63 CALM      29.96S                  
COOK           CLOUDY    61  50  67 E3        29.98F                  
WALKER         CLOUDY    64  54  68 NW3       29.85F                  
$$
MNZ012-019>021-037-310600-
   Northeast Minnesota   
  
CITY           SKY/WX    TMP DP  RH WIND       PRES   REMARKS
DULUTH         MOCLDY    61  45  55 E21G28    29.98R                  
ELY            CLOUDY    59  46  63 E13       30.02S                  
HIBBING        CLOUDY    64  45  49 SE8       29.95F                  
EVELETH        CLOUDY    63  43  48 E7        29.98F                  
DULUTH HARBOR  CLOUDY    52  46  82 NE35G43   29.98R                  
TWO HARBORS    PTCLDY    55  48  76 E18G26    30.02R                  
SILVER BAY     PTCLDY    50  45  81 NE10G16   30.05F                  
GRAND MARAIS     N/A     43  39  86 E10       30.10R                  
G MARAIS ARPRT PTCLDY    50  43  76 NE6G16    30.10R                  
$$
MNZ029>031-032-039>041-046>048-054>057-064-310600-
   West Central Minnesota   
  
CITY           SKY/WX    TMP DP  RH WIND       PRES   REMARKS
FERGUS FALLS   CLOUDY    72  54  53 W17G24    29.78R                  
WHEATON        CLOUDY    68  55  64 NW9G17    29.80R                  
MORRIS         CLOUDY    70  57  64 SE15G21   29.74F                  
ALEXANDRIA     CLOUDY    67  55  65 E10       29.81F                  
ELBOW LAKE     FAIR      69  56  63 SE14      29.75F                  
WADENA         CLOUDY    70  52  52 SE24G30   29.81F                  
GLENWOOD       CLOUDY    66  55  68 E13       29.80F                  
APPLETON       CLOUDY    72  57  60 E10       29.74F                  
ORTONVILLE     MOCLDY    72  57  60 SE10      29.73F                  
MADISON        CLOUDY    73  55  53 SE16G24   29.73F                  
WILLMAR        FAIR      72  59  64 SE17      29.81F                  
$$
MNZ033>034-036-042>043-049>051-058-059-310600-
   Central Minnesota     
  
CITY           SKY/WX    TMP DP  RH WIND       PRES   REMARKS
ST CLOUD       PTCLDY    72  51  47 SE13G18   29.84F                  
SAUK CENTRE    MOCLDY    66  56  68 E8        29.81F                  
PAYNESVILLE    MOCLDY    71  52  50 SE12G17   29.82F                  
AITKIN         PTCLDY    66  48  52 E7        29.87F                  
PINE RIVER     PTCLDY    64  54  68 E10       29.88F                  
BRAINERD       PTCLDY    66  54  65 VRB6      29.86F                  
STAPLES        CLOUDY    68  52  56 SE8       29.86R                  
LONG PRAIRIE   LGT RAIN  64  54  68 E9        29.81F                  
LITTLE FALLS   TSTM      64  54  68 E7        29.83F                  
LITCHFIELD     CLOUDY    72  57  60 SE12      29.84F                  
BUFFALO        MOCLDY    70  53  54 SE7       29.87F                  
MAPLE LAKE     CLOUDY    72  56  58 SE6       29.86F                  
HUTCHINSON     CLOUDY    71  59  67 SE10G17   29.86F                  
$$
MNZ037-044-045-052-053-310600-
   East Central Minnesota   
  
CITY           SKY/WX    TMP DP  RH WIND       PRES   REMARKS
PRINCETON      HVY RAIN  72  55  56 E8        29.87F                  
MORA           CLOUDY    64  52  63 E8        29.91F                  
CAMBRIDGE      CLOUDY    73  55  53 E9        29.87F                  
RUSH CITY      MOCLDY    67  54  62 E5        29.90F                  
MOOSE LAKE     MOCLDY    61  54  77 NE5       29.92S                  
HINCKLEY       FAIR      64  55  72 NE5       29.91F                  
CLOQUET        CLOUDY    61  45  55 E7        29.95F                  
MCGREGOR       PTCLDY    64  52  63 E12       29.91F                  
$$
MNZ071>073-080-081-089-090-097-098-310600-
   Southwest Minnesota   
  
CITY           SKY/WX    TMP DP  RH WIND       PRES   REMARKS
MONTEVIDEO     CLOUDY    73  57  56 S18G25    29.77F                  
GRANITE FALLS  CLOUDY    72  63  73 SE13G20   29.80S                  
CANBY          CLOUDY    74  58  58 SE14G21   29.76R                  
MARSHALL       LGT RAIN  70  61  73 S21G31    29.79S                  
REDWOOD FALLS  LGT RAIN  69  60  73 S25G32    29.83R                  
OLIVIA         CLOUDY    73  61  64 S18G25    29.81S                  
PIPESTONE      CLOUDY    68  57  68 S14       29.82R                  
WINDOM         CLOUDY    70  57  64 S7G18     29.87R                  
WORTHINGTON    CLOUDY    66  59  78 SE17      29.85F                  
JACKSON        PTCLDY    68  54  60 S20       29.89F                  
TRACY          TSTM      66  62  86 SE8       29.84S                  
SLAYTON        RAIN      66  58  75 SE22G28   29.83F                  
$$
MNZ065>067-074>077-082>085-091>093-310600-
   South Central Minnesota  
  
CITY           SKY/WX    TMP DP  RH WIND       PRES   REMARKS
MANKATO        CLOUDY    70  54  56 S12       29.86F                  
NEW ULM        CLOUDY    70  55  60 S16G22    29.84F                  
ST JAMES       CLOUDY    63  52  67 SE20G25   29.87F                  
FAIRMONT       CLOUDY    64  55  72 SE21      29.87F                  
GLENCOE        CLOUDY    72  60  64 SE10G17   29.85F                  
FARIBAULT      PTCLDY    68  59  73 SE7       29.91F                  
OWATONNA       PTCLDY    68  55  64 S9        29.93S                  
WASECA         MOCLDY    68  54  60 S18G25    29.91F                  
ALBERT LEA     CLOUDY    68  57  68 S17G25    29.93F                  
$$
MNZ078>079-086>088-094>096-310600-
   Southeast Minnesota   
  
CITY           SKY/WX    TMP DP  RH WIND       PRES   REMARKS
ROCHESTER      CLOUDY    66  57  72 SE9       29.97R                  
RED WING       PTCLDY    68  54  60 CALM      29.92S                  
STANTON        MOCLDY    68  58  69 S3        29.90F                  
DODGE CENTER   CLOUDY    66  55  68 S12       29.96R                  
WINONA         CLOUDY    70  55  60 CALM      29.96S                  
AUSTIN         LGT RAIN  64  57  77 S9        29.96S                  
PRESTON        LGT RAIN  65  57  74 S13       30.00R                  
$$
ABBREVIATIONS USED IN REMARKS
   TC - TEMPERATURES IN CELSIUS
  WCI - WIND CHILL INDEX
   HX - HEAT INDEX
  VSB - VISIBILITY 
$$
  

Return to Home page


Western Regional Climate Center, wrcc@dri.edu